Location: Unspecified
(29.9680°N, 0.0000°E)
Time: 10:18:42
(UTC+00:00)

Explorer 7 - Pass Details

Date: 26 June 2019
Orbit: 485 x 680 km, 50.3° (Epoch: 16 July)

Event Time Altitude Azimuth Distance (km) Brightness Sun altitude
Rises 05:36:03 0° 211° (SSW) 2,588 9.8 6.1°
Reaches altitude 10° 05:38:14 10° 205° (SSW) 1,730 8.9 6.5°
Maximum altitude 05:42:00 47° 131° (SE) 714 7.8 7.2°
Drops below altitude 10° 05:46:01 10° 57° (ENE) 1,842 11.9 8.0°
Sets 05:48:24 0° 52° (NE) 2,778 12.2 8.5°
